Regional Weather Roundup
Issued by NWS Cleveland, OH

Home | Current Version | Previous Version | Graphics & Text | Print | Product List | Glossary On
Versions: 1 2 3 4 5 6 7 8 9 10 11 12 13 14 15 16 17 18 19 20 21 22 23 24 25 26 27 28 29 30 31 32 33 34 35 36 37 38 39 40 41 42 43 44 45 46 47 48 49 50
000
ASUS41 KCLE 232202
RWRCLE
OHIO REGIONAL WEATHER ROUNDUP
NATIONAL WEATHER SERVICE CLEVELAND, OH
600 PM EDT SAT JUL 23 2016

NOTE: "FAIR" INDICATES FEW OR NO CLOUDS BELOW 12,000 FEET WITH NO
SIGNIFICANT WEATHER AND/OR OBSTRUCTIONS TO VISIBILITY.

OHZ001>008-015>018-024>027-034-035-043-044-232300-
   NORTHWEST OHIO

CITY           SKY/WX    TMP DP  RH WIND       PRES   REMARKS
DEFIANCE       MOSUNNY   93  60  33 NE3       29.95F HX  93
FINDLAY        CLOUDY    91  69  48 SW5       29.96F HX  96
TOLEDO EXPRESS CLOUDY    93  70  46 VRB3      29.95F HX  99
TOLEDO EXEC    PTSUNNY   92  64  39 E8        29.96S HX  93
LIMA           CLOUDY    89  71  55 CALM      29.97F HX  95
$$

OHZ009>014-019>023-028>033-038-089-232300-
   NORTHEAST OHIO

CITY           SKY/WX    TMP DP  RH WIND       PRES   REMARKS
CLE-HOPKINS    MOSUNNY   92  60  34 N10       29.99S HX  91
CLE-LAKEFRONT  SUNNY     84  74  71 N3        29.96S HX  91
CUY CO. ARPT   MOSUNNY   90  73  58 N7        29.99S HX  98
LORAIN-ELYRIA  SUNNY     89  63  41 NE7       29.97F HX  90
ASHTABULA      SUNNY     85  62  46 N6        29.99F
AKRON-CANTON   MOSUNNY   93  65  39 N9        29.97S HX  95
WOOSTER        SUNNY     90  69  50 N9        29.98S HX  94
MANSFIELD      SUNNY     91  69  48 W7        29.99F HX  96
YOUNGSTOWN     MOSUNNY   90  61  37 N13       29.98R HX  90
$$

OHZ042-051>053-060>062-070>072-077>081-232300-
  SOUTHWEST OHIO

CITY           SKY/WX    TMP DP  RH WIND       PRES   REMARKS
CINC-COVINGTON MOSUNNY   93  72  50 N7        29.97F HX 101
CINC-LUNKEN    MOSUNNY   92  71  50 VRB6      29.95F HX  98
HAMILTON       SUNNY     93  71  48 SW7       29.96F HX 100
DAYTON         PTSUNNY   89  71  55 W6        29.98F HX  95
WRIGHT-PAT AFB PTSUNNY   91  71  51 SW7       29.96F HX  96
DAYTON GENERAL SUNNY     91  69  48 W7        29.97F HX  96
WILMINGTON     MOSUNNY   91  72  53 W8        29.98F HX  98
$$

OHZ036-037-039>041-045>050-054>059-063>069-073>076-082>088-232300-
  CENTRAL AND SOUTHEAST OHIO

CITY           SKY/WX    TMP DP  RH WIND       PRES   REMARKS
COLUMBUS       MOSUNNY   90  71  53 NW9       29.96F HX  96
OSU AIRPORT    MOSUNNY   89  71  55 W8        29.97F HX  95
BOLTON FIELD   MOSUNNY   90  73  58 W5        29.99S HX  98
RICKENBACK AFB MOSUNNY   90  72  55 W10       29.96F HX  97
NEWARK         MOSUNNY   89  71  55 W8        29.97F HX  95
MARION         MOSUNNY   89  69  51 NW7       29.98F HX  93
LANCASTER      SUNNY     88  72  58 W6        29.98F HX  94
ZANESVILLE     MOSUNNY   94  70  45 VRB6      29.97S HX 100
NEW PHILLY     CLOUDY    91  71  51 NE9G21    29.96S THUNDER HX  97
$$



USA.gov is the U.S. government's official web portal to all federal, state and local government web resources and services.